Weather History for KOZW - April, 2013

Change the Weather History Date:

Saturday, April 20, 2013

  Actual Average Record
Temperature  
Mean Temperature 33 °F -  
Max Temperature 38 °F 58 °F 73 °F (2003)
Min Temperature 28 °F 38 °F 28 °F (2013)
Degree Days  
Heating Degree Days 32    
Moisture  
Dew Point 22 °F    
Average Humidity 63    
Maximum Humidity 93    
Minimum Humidity 52    
Precipitation  
Precipitation 0.00 in - - ()
Sea Level Pressure  
Sea Level Pressure 30.14 in    
Wind  
Wind Speed 13 mph (WNW)    
Max Wind Speed 22 mph    
Max Gust Speed 30 mph    
Visibility 10 miles    
Events Snow    
Averages and records for this station are not official NWS values.
T = Trace of Precipitation, MM = Missing Value Source: NWS Daily Summary

Daily Weather History Graph

Daily Weather History Graph

Search for Another Location

Airport or City:

Trip Planner

Search our weather history database for the weather conditions in past years. The results will help you decide how hot, cold, wet, or windy it might be!

Date:

Astronomy

Apr. 20, 2013 Rise Set
Actual Time 6:46 AM EDT 8:23 PM EDT
Civil Twilight 6:16 AM EDT 8:53 PM EDT
Nautical Twilight 5:40 AM EDT 9:29 PM EDT
Astronomical Twilight 5:02 AM EDT 10:08 PM EDT
Moon 3:00 PM EDT (4/20) 3:42 AM EDT (4/20)
Length of Visible Light 14h 37m
Length of Day
13h 37m
Waxing Gibbous, 71% of the Moon is Illuminated
Apr 20
Waxing Gibbous
Apr 25
Full
May 2
Last Quarter
May 9
New
May 18
First Quarter

Hourly Weather History & Observations

Time (EDT) Temp. Windchill Dew Point Humidity Pressure Visibility Wind Dir Wind Speed Gust Speed Precip Events Conditions
12:15 AM 32.9 °F 23.2 °F 31.1 °F 93% 29.73 in 5.0 mi WSW 13.8 mph - N/A Snow Light Snow
12:35 AM 33.1 °F 24.4 °F 31.3 °F 93% 29.74 in 10.0 mi WSW 11.5 mph 19.6 mph N/A   Overcast
3:59 AM 32.5 °F 22.7 °F 26.4 °F 78% 29.83 in 10.0 mi West 13.8 mph 19.6 mph N/A   Overcast
4:15 AM 32.0 °F 22.5 °F 24.8 °F 75% 29.84 in 10.0 mi WNW 12.7 mph 23.0 mph N/A   Mostly Cloudy
4:35 AM 32.0 °F 20.5 °F 23.5 °F 71% 29.85 in 10.0 mi West 18.4 mph 24.2 mph N/A   Scattered Clouds
4:55 AM 32.0 °F 23.0 °F 23.4 °F 70% 29.86 in 10.0 mi West 11.5 mph 20.7 mph N/A   Scattered Clouds
5:15 AM 31.5 °F 21.8 °F 22.5 °F 69% 29.87 in 10.0 mi WNW 12.7 mph 18.4 mph N/A   Mostly Cloudy
5:35 AM 31.1 °F 20.5 °F 21.0 °F 66% 29.88 in 10.0 mi WNW 15.0 mph 29.9 mph N/A   Mostly Cloudy
5:55 AM 30.2 °F 19.3 °F 20.8 °F 68% 29.89 in 10.0 mi WNW 15.0 mph 24.2 mph N/A   Scattered Clouds
6:15 AM 30.2 °F 17.1 °F 18.9 °F 63% 29.91 in 10.0 mi WNW 21.9 mph 25.3 mph N/A   Mostly Cloudy
6:35 AM 29.3 °F 17.7 °F 17.6 °F 62% 29.93 in 10.0 mi West 16.1 mph 29.9 mph N/A   Scattered Clouds
6:54 AM 29.1 °F 18.9 °F 17.8 °F 63% 29.95 in 10.0 mi WNW 12.7 mph 23.0 mph N/A   Mostly Cloudy
7:15 AM 28.9 °F 17.3 °F 17.4 °F 62% 29.96 in 10.0 mi West 16.1 mph 20.7 mph N/A   Scattered Clouds
7:35 AM 28.9 °F 18.2 °F 16.9 °F 61% 29.98 in 10.0 mi WNW 13.8 mph 26.5 mph N/A   Clear
7:54 AM 28.8 °F 16.6 °F 16.5 °F 60% 29.99 in 10.0 mi West 17.3 mph 23.0 mph N/A   Clear
8:15 AM 29.1 °F 17.5 °F 16.7 °F 60% 30.00 in 10.0 mi WNW 16.1 mph 26.5 mph N/A   Clear
8:35 AM 30.0 °F 20.0 °F 17.8 °F 60% 30.02 in 10.0 mi WNW 12.7 mph 21.9 mph N/A   Mostly Cloudy
8:55 AM 30.9 °F 20.7 °F 18.5 °F 60% 30.03 in 10.0 mi WNW 13.8 mph - N/A   Mostly Cloudy
9:15 AM 30.9 °F 19.8 °F 18.1 °F 59% 30.04 in 10.0 mi West 16.1 mph 25.3 mph N/A   Overcast
9:35 AM 31.3 °F 22.7 °F 19.2 °F 61% 30.05 in 10.0 mi WNW 10.4 mph 20.7 mph N/A   Overcast
9:55 AM 32.0 °F 21.6 °F 19.4 °F 60% 30.07 in 10.0 mi West 15.0 mph 24.2 mph N/A   Mostly Cloudy
10:15 AM 31.8 °F 21.8 °F 19.9 °F 62% 30.08 in 10.0 mi WNW 13.8 mph 19.6 mph N/A   Mostly Cloudy
10:35 AM 32.4 °F 23.5 °F 20.3 °F 61% 30.09 in 10.0 mi West 11.5 mph 21.9 mph N/A   Mostly Cloudy
10:55 AM 32.5 °F 22.7 °F 20.7 °F 62% 30.10 in 10.0 mi West 13.8 mph 19.6 mph N/A   Overcast
11:15 AM 32.9 °F 23.2 °F 21.6 °F 63% 30.11 in 10.0 mi WNW 13.8 mph - N/A   Mostly Cloudy
11:34 AM 33.1 °F 24.4 °F 21.2 °F 62% 30.13 in 10.0 mi WNW 11.5 mph 17.3 mph N/A   Mostly Cloudy
11:55 AM 34.7 °F 24.3 °F 21.7 °F 59% 30.14 in 10.0 mi West 17.3 mph 21.9 mph N/A   Mostly Cloudy
12:15 PM 34.3 °F 23.9 °F 20.7 °F 57% 30.15 in 10.0 mi WNW 17.3 mph 21.9 mph N/A   Mostly Cloudy
12:34 PM 36.1 °F 27.7 °F 23.4 °F 60% 30.15 in 10.0 mi West 12.7 mph 20.7 mph N/A   Mostly Cloudy
12:55 PM 35.1 °F 24.8 °F 21.7 °F 58% 30.16 in 10.0 mi West 17.3 mph 23.0 mph N/A   Overcast
1:15 PM 35.1 °F 26.4 °F 21.4 °F 57% 30.17 in 10.0 mi West 12.7 mph 23.0 mph N/A   Overcast
1:34 PM 35.6 °F 26.2 °F 21.6 °F 57% 30.17 in 10.0 mi West 15.0 mph 23.0 mph N/A   Overcast
1:55 PM 36.3 °F 28.0 °F 23.0 °F 59% 30.18 in 10.0 mi NW 12.7 mph 20.7 mph N/A   Overcast
2:15 PM 36.0 °F 27.5 °F 22.8 °F 59% 30.20 in 10.0 mi West 12.7 mph 19.6 mph N/A   Overcast
2:35 PM 36.0 °F 25.3 °F 23.9 °F 62% 30.21 in 10.0 mi West 19.6 mph - N/A   Overcast
2:55 PM 37.4 °F 28.5 °F 25.2 °F 61% 30.21 in 10.0 mi WNW 15.0 mph 23.0 mph N/A   Overcast
3:15 PM 36.1 °F 28.2 °F 24.1 °F 62% 30.22 in 10.0 mi West 11.5 mph 17.3 mph N/A   Overcast
3:35 PM 36.5 °F 28.7 °F 23.5 °F 59% 30.23 in 10.0 mi WNW 11.5 mph 17.3 mph N/A   Overcast
3:55 PM 37.9 °F 29.6 °F 23.9 °F 57% 30.23 in 10.0 mi West 13.8 mph 21.9 mph N/A   Overcast
4:15 PM 38.7 °F 31.8 °F 23.9 °F 55% 30.23 in 10.0 mi West 10.4 mph 18.4 mph N/A   Overcast
4:35 PM 36.9 °F 29.6 °F 22.1 °F 55% 30.25 in 10.0 mi WNW 10.4 mph 21.9 mph N/A   Overcast
4:55 PM 37.8 °F 29.0 °F 21.9 °F 53% 30.25 in 10.0 mi WNW 15.0 mph - N/A   Overcast
5:14 PM 37.4 °F 29.3 °F 21.4 °F 52% 30.26 in 10.0 mi West 12.7 mph 17.3 mph N/A   Overcast
5:35 PM 37.2 °F 27.6 °F 23.2 °F 57% 30.27 in 10.0 mi West 17.3 mph 23.0 mph N/A   Overcast
5:55 PM 38.8 °F 31.2 °F 23.5 °F 54% 30.28 in 10.0 mi West 12.7 mph 16.1 mph N/A   Overcast
6:14 PM 36.7 °F 28.4 °F 22.5 °F 56% 30.28 in 10.0 mi WNW 12.7 mph - N/A   Overcast
6:35 PM 36.5 °F 27.4 °F 21.4 °F 54% 30.29 in 10.0 mi West 15.0 mph - N/A   Mostly Cloudy
6:55 PM 36.7 °F 28.9 °F 22.3 °F 56% 30.30 in 10.0 mi WNW 11.5 mph 16.1 mph N/A   Mostly Cloudy
7:14 PM 36.5 °F 27.0 °F 20.7 °F 53% 30.31 in 10.0 mi West 16.1 mph - N/A   Overcast
7:35 PM 35.6 °F 29.2 °F 21.0 °F 55% 30.32 in 10.0 mi West 8.1 mph - N/A   Mostly Cloudy
7:55 PM 35.8 °F 29.4 °F 19.9 °F 53% 30.32 in 10.0 mi West 8.1 mph - N/A   Mostly Cloudy
8:15 PM 35.2 °F 29.5 °F 21.2 °F 57% 30.33 in 10.0 mi WNW 6.9 mph - N/A   Overcast
8:35 PM 34.0 °F 28.8 °F 21.6 °F 60% 30.35 in 10.0 mi WNW 5.8 mph - N/A   Mostly Cloudy
8:54 PM 33.8 °F 28.6 °F 22.1 °F 62% 30.35 in 10.0 mi WNW 5.8 mph - N/A   Scattered Clouds
9:15 PM 32.4 °F 29.1 °F 22.8 °F 68% 30.37 in 10.0 mi NW 3.5 mph - N/A   Clear
9:55 PM 32.0 °F - 22.8 °F 69% 30.38 in 10.0 mi Calm Calm - N/A   Clear
10:15 PM 32.0 °F - 23.0 °F 69% 30.39 in 10.0 mi Calm Calm - N/A   Clear
10:35 PM 32.0 °F - 22.6 °F 68% 30.40 in 10.0 mi Calm Calm - N/A   Clear
10:55 PM 32.0 °F - 22.8 °F 69% 30.41 in 10.0 mi Calm Calm - N/A   Clear
11:15 PM 31.5 °F 28.1 °F 23.4 °F 72% 30.41 in 10.0 mi SW 3.5 mph - N/A   Clear
11:35 PM 30.2 °F 26.7 °F 23.7 °F 77% 30.42 in 10.0 mi WSW 3.5 mph - N/A   Clear
11:55 PM 30.7 °F - 24.1 °F 76% 30.43 in 10.0 mi Calm Calm - N/A   Clear